Location: Rowland
(34.5359°N, 79.2929°W)
Time: 17:42:25
(UTC+00:00)

SR - Pass Details

Date: 07 October 2022
Orbit: 577 x 874 km, 66.7° (Epoch: 05 December)

Event Time Altitude Azimuth Distance (km) Brightness Sun altitude
Rises 08:36:56 0° 353° (N) 3,300 ? -33.3°
Reaches altitude 10° 08:41:25 10° 26° (NNE) 2,284 ? -32.4°
Maximum altitude 08:43:00 11° 44° (NE) 2,163 ? -32.1°
Drops below altitude 10° 08:44:34 10° 62° (ENE) 2,219 ? -31.8°
Sets 08:48:41 0° 97° (E) 3,047 ? -31.0°
